QPF
0.11 0.13 0.14 0.11 0.09 0.11 0.14 0.17 0.21 0.33 0.44 0.39 0.29 0.30 0.33 0.28 0.26 0.26 0.28 0.34 0.40 0.36 0.39 0.35 0.20 0.13 0.08 0.04 0.03 0.01 0.01 0.00 0.00 0.00 0.00 0.00 0.00 0.01 0.00 0.00 0.00 0.00 0.00
0.12 0.13 0.13 0.12 0.10 0.12 0.15 0.18 0.20 0.26 0.32 0.29 0.22 0.21 0.23 0.22 0.18 0.17 0.18 0.18 0.24 0.26 0.25 0.23 0.20 0.17 0.12 0.08 0.05 0.03 0.02 0.01 0.00 0.00 0.00 0.00 0.00 0.00 0.01 0.00 0.00 0.00 0.00
0.10 0.09 0.07 0.06 0.06 0.08 0.10 0.11 0.11 0.12 0.12 0.13 0.11 0.11 0.09 0.09 0.11 0.09 0.11 0.13 0.15 0.18 0.14 0.13 0.16 0.16 0.14 0.11 0.08 0.06 0.04 0.02 0.01 0.00 0.00 0.00 0.00 0.00 0.00 0.00 0.00 0.00 0.00
0.04 0.03 0.03 0.03 0.03 0.03 0.05 0.05 0.05 0.06 0.05 0.05 0.04 0.04 0.03 0.03 0.04 0.06 0.08 0.10 0.10 0.09 0.07 0.10 0.12 0.13 0.14 0.13 0.11 0.11 0.08 0.04 0.02 0.00 0.00 0.00 0.00 0.00 0.00 0.00 0.00 0.00 0.00
0.01 0.01 0.01 0.01 0.01 0.01 0.01 0.01 0.02 0.02 0.02 0.02 0.02 0.01 0.01 0.01 0.01 0.02 0.03 0.04 0.05 0.07 0.06 0.06 0.08 0.08 0.13 0.17 0.17 0.16 0.13 0.08 0.04 0.02 0.01 0.00 0.00 0.00 0.00 0.00 0.00 0.00 0.00
0.00 0.00 0.00 0.00 0.00 0.00 0.00 0.00 0.00 0.00 0.01 0.01 0.01 0.00 0.00 0.00 0.00 0.00 0.01 0.01 0.02 0.03 0.04 0.04 0.04 0.04 0.08 0.12 0.15 0.17 0.17 0.14 0.10 0.06 0.04 0.02 0.01 0.00 0.00 0.00 0.00 0.00 0.00
0.00 0.00 0.00 0.00 0.00 0.00 0.00 0.00 0.00 0.00 0.00 0.00 0.00 0.00 0.00 0.00 0.00 0.00 0.00 0.00 0.01 0.01 0.02 0.03 0.03 0.04 0.04 0.05 0.09 0.14 0.21 0.22 0.19 0.14 0.10 0.07 0.06 0.03 0.01 0.00 0.00 0.00 0.00
0.00 0.00 0.00 0.00 0.00 0.00 0.00 0.00 0.00 0.00 0.00 0.00 0.00 0.00 0.00 0.00 0.00 0.00 0.01 0.01 0.01 0.03 0.03 0.03 0.04 0.06 0.07 0.08 0.12 0.16 0.24 0.28 0.28 0.25 0.20 0.16 0.14 0.09 0.05 0.02 0.01 0.01 0.00
0.00 0.00 0.00 0.00 0.00 0.00 0.00 0.00 0.00 0.00 0.00 0.00 0.00 0.01 0.01 0.00 0.00 0.00 0.01 0.03 0.04 0.05 0.05 0.06 0.08 0.08 0.11 0.18 0.21 0.22 0.25 0.29 0.34 0.34 0.30 0.23 0.17 0.13 0.10 0.06 0.04 0.02 0.02
0.00 0.00 0.00 0.00 0.00 0.00 0.00 0.00 0.00 0.00 0.00 0.00 0.00 0.01 0.01 0.01 0.01 0.00 0.00 0.01 0.03 0.05 0.08 0.10 0.10 0.10 0.13 0.22 0.32 0.30 0.25 0.26 0.32 0.34 0.30 0.24 0.17 0.11 0.08 0.06 0.06 0.06 0.04
0.01 0.01 0.00 0.00 0.00 0.00 0.00 0.00 0.00 0.00 0.00 0.00 0.00 0.00 0.00 0.01 0.02 0.01 0.00 0.00 0.00 0.03 0.09 0.16 0.14 0.12 0.13 0.20 0.31 0.32 0.37 0.31 0.29 0.30 0.27 0.24 0.18 0.12 0.08 0.06 0.07 0.07 0.07
0.03 0.02 0.01 0.01 0.00 0.00 0.00 0.00 0.00 0.00 0.00 0.00 0.00 0.00 0.00 0.00 0.01 0.01 0.01 0.00 0.00 0.01 0.05 0.13 0.13 0.14 0.15 0.16 0.20 0.27 0.31 0.31 0.25 0.20 0.18 0.14 0.10 0.07 0.06 0.07 0.08 0.08 0.08
0.07 0.06 0.04 0.03 0.02 0.01 0.00 0.00 0.00 0.00 0.00 0.00 0.00 0.00 0.00 0.00 0.01 0.01 0.01 0.00 0.00 0.00 0.02 0.07 0.11 0.13 0.17 0.20 0.18 0.19 0.19 0.17 0.14 0.12 0.12 0.10 0.06 0.04 0.03 0.03 0.03 0.04 0.06
0.14 0.13 0.11 0.07 0.05 0.04 0.02 0.00 0.00 0.00 0.00 0.00 0.00 0.00 0.00 0.00 0.01 0.01 0.01 0.01 0.01 0.01 0.02 0.06 0.12 0.12 0.19 0.25 0.22 0.18 0.16 0.13 0.09 0.07 0.06 0.05 0.04 0.02 0.01 0.01 0.00 0.01 0.02
0.16 0.16 0.15 0.13 0.11 0.08 0.05 0.03 0.01 0.00 0.00 0.00 0.00 0.00 0.00 0.00 0.00 0.01 0.01 0.01 0.02 0.01 0.02 0.05 0.09 0.11 0.18 0.23 0.20 0.14 0.10 0.08 0.06 0.05 0.04 0.03 0.02 0.01 0.00 0.01 0.00 0.00 0.01
0.08 0.11 0.13 0.12 0.11 0.10 0.08 0.05 0.02 0.01 0.00 0.00 0.00 0.00 0.00 0.00 0.00 0.00 0.01 0.01 0.02 0.02 0.03 0.05 0.09 0.10 0.13 0.15 0.14 0.09 0.06 0.04 0.03 0.03 0.02 0.01 0.01 0.00 0.00 0.00 0.01 0.01 0.01
0.02 0.03 0.05 0.07 0.08 0.09 0.09 0.07 0.04 0.02 0.01 0.00 0.00 0.00 0.00 0.00 0.00 0.00 0.00 0.01 0.02 0.04 0.04 0.05 0.08 0.10 0.12 0.12 0.09 0.05 0.03 0.02 0.01 0.01 0.01 0.01 0.00 0.00 0.00 0.00 0.00 0.00 0.01
0.00 0.00 0.00 0.01 0.03 0.05 0.07 0.08 0.06 0.04 0.02 0.01 0.00 0.00 0.00 0.00 0.00 0.00 0.00 0.01 0.03 0.06 0.07 0.07 0.08 0.10 0.13 0.12 0.10 0.07 0.04 0.02 0.01 0.01 0.01 0.00 0.00 0.00 0.00 0.00 0.00 0.00 0.00
0.00 0.00 0.00 0.00 0.00 0.01 0.03 0.06 0.06 0.05 0.03 0.01 0.01 0.00 0.00 0.00 0.00 0.00 0.00 0.01 0.03 0.06 0.08 0.09 0.10 0.13 0.14 0.12 0.08 0.06 0.03 0.02 0.01 0.01 0.01 0.00 0.00 0.00 0.00 0.00 0.00 0.00 0.00
0.00 0.00 0.00 0.00 0.00 0.00 0.01 0.03 0.05 0.05 0.04 0.03 0.02 0.01 0.00 0.00 0.00 0.00 0.00 0.01 0.03 0.04 0.05 0.09 0.12 0.14 0.15 0.14 0.10 0.06 0.03 0.02 0.01 0.01 0.00 0.00 0.00 0.00 0.00 0.00 0.00 0.00 0.00
0.00 0.00 0.00 0.00 0.00 0.00 0.00 0.02 0.04 0.05 0.05 0.05 0.04 0.02 0.01 0.00 0.00 0.00 0.00 0.01 0.02 0.03 0.04 0.06 0.08 0.10 0.11 0.12 0.09 0.06 0.04 0.03 0.01 0.01 0.00 0.00 0.00 0.00 0.00 0.00 0.00 0.00 0.00
0.00 0.00 0.00 0.00 0.00 0.00 0.00 0.01 0.02 0.04 0.05 0.05 0.05 0.04 0.02 0.01 0.00 0.00 0.00 0.00 0.01 0.02 0.03 0.04 0.06 0.06 0.06 0.06 0.05 0.04 0.03 0.02 0.02 0.01 0.00 0.00 0.00 0.00 0.00 0.00 0.00 0.00 0.00
0.01 0.01 0.01 0.00 0.00 0.00 0.00 0.01 0.01 0.03 0.05 0.05 0.05 0.04 0.03 0.01 0.01 0.01 0.00 0.00 0.01 0.02 0.03 0.04 0.05 0.06 0.05 0.05 0.05 0.05 0.03 0.02 0.01 0.01 0.01 0.01 0.00 0.00 0.00 0.00 0.00 0.00 0.00
0.01 0.01 0.01 0.01 0.01 0.00 0.00 0.00 0.01 0.03 0.05 0.06 0.07 0.06 0.04 0.02 0.01 0.01 0.00 0.00 0.01 0.02 0.03 0.03 0.04 0.06 0.07 0.06 0.05 0.05 0.04 0.03 0.03 0.02 0.02 0.01 0.00 0.00 0.00 0.00 0.00 0.00 0.00
0.01 0.01 0.01 0.01 0.01 0.00 0.00 0.00 0.01 0.03 0.05 0.08 0.09 0.09 0.06 0.03 0.02 0.01 0.00 0.00 0.00 0.02 0.04 0.06 0.06 0.08 0.10 0.09 0.07 0.05 0.04 0.03 0.03 0.03 0.01 0.01 0.00 0.00 0.00 0.00 0.00 0.00 0.00
0.01 0.00 0.00 0.00 0.01 0.00 0.00 0.00 0.02 0.03 0.06 0.09 0.12 0.13 0.11 0.06 0.03 0.01 0.00 0.00 0.00 0.01 0.02 0.03 0.04 0.05 0.05 0.05 0.05 0.04 0.03 0.02 0.02 0.02 0.01 0.00 0.00 0.00 0.00 0.00 0.00 0.00 0.00
MSLP
1011.26 1011.32 1011.25 1011.08 1010.89 1010.73 1010.63 1010.62 1010.70 1010.84 1011.01 1011.19 1011.35 1011.49 1011.59 1011.67 1011.73 1011.79 1011.83 1011.88 1011.93 1012.00 1012.08 1012.21 1012.38 1012.60 1012.88 1013.19 1013.51 1013.84 1014.15 1014.44 1014.70 1014.96 1015.24 1015.54 1015.88 1016.25 1016.63 1017.02 1017.37 1017.68 1017.93
1010.92 1011.05 1011.04 1010.93 1010.78 1010.63 1010.52 1010.47 1010.50 1010.59 1010.71 1010.85 1010.99 1011.10 1011.20 1011.27 1011.31 1011.34 1011.36 1011.37 1011.40 1011.45 1011.54 1011.68 1011.88 1012.13 1012.43 1012.76 1013.09 1013.41 1013.71 1013.97 1014.22 1014.46 1014.72 1015.02 1015.36 1015.74 1016.13 1016.53 1016.90 1017.22 1017.51
1010.53 1010.73 1010.80 1010.78 1010.70 1010.60 1010.52 1010.47 1010.46 1010.50 1010.57 1010.65 1010.74 1010.82 1010.88 1010.92 1010.93 1010.92 1010.91 1010.89 1010.89 1010.92 1011.00 1011.15 1011.36 1011.64 1011.95 1012.29 1012.62 1012.93 1013.21 1013.46 1013.69 1013.92 1014.17 1014.46 1014.79 1015.17 1015.57 1015.98 1016.36 1016.71 1017.02
1010.12 1010.38 1010.54 1010.62 1010.65 1010.64 1010.61 1010.58 1010.56 1010.56 1010.57 1010.59 1010.61 1010.63 1010.63 1010.63 1010.60 1010.55 1010.50 1010.45 1010.41 1010.42 1010.49 1010.62 1010.83 1011.10 1011.41 1011.74 1012.07 1012.38 1012.65 1012.88 1013.10 1013.32 1013.57 1013.85 1014.18 1014.55 1014.96 1015.37 1015.77 1016.14 1016.49
1009.73 1010.02 1010.26 1010.45 1010.59 1010.69 1010.74 1010.76 1010.75 1010.71 1010.66 1010.61 1010.56 1010.50 1010.45 1010.39 1010.32 1010.24 1010.15 1010.07 1010.00 1009.97 1010.00 1010.10 1010.28 1010.52 1010.81 1011.12 1011.44 1011.73 1012.00 1012.24 1012.46 1012.68 1012.93 1013.21 1013.54 1013.90 1014.30 1014.71 1015.12 1015.51 1015.89
1009.36 1009.66 1009.96 1010.25 1010.52 1010.72 1010.87 1010.94 1010.94 1010.89 1010.79 1010.67 1010.54 1010.42 1010.31 1010.21 1010.10 1010.00 1009.88 1009.76 1009.66 1009.59 1009.57 1009.61 1009.73 1009.92 1010.16 1010.44 1010.73 1011.01 1011.28 1011.53 1011.77 1012.01 1012.27 1012.56 1012.89 1013.24 1013.63 1014.03 1014.43 1014.83 1015.22
1009.04 1009.31 1009.65 1010.02 1010.38 1010.69 1010.93 1011.06 1011.08 1011.02 1010.88 1010.71 1010.53 1010.36 1010.20 1010.07 1009.95 1009.83 1009.70 1009.56 1009.42 1009.30 1009.21 1009.18 1009.21 1009.32 1009.49 1009.71 1009.97 1010.24 1010.51 1010.78 1011.05 1011.33 1011.61 1011.92 1012.24 1012.59 1012.96 1013.34 1013.72 1014.11 1014.50
1008.76 1008.99 1009.33 1009.75 1010.18 1010.57 1010.88 1011.06 1011.11 1011.04 1010.89 1010.68 1010.47 1010.27 1010.11 1009.97 1009.85 1009.74 1009.60 1009.45 1009.28 1009.10 1008.94 1008.81 1008.74 1008.75 1008.83 1008.98 1009.19 1009.45 1009.73 1010.03 1010.34 1010.65 1010.97 1011.30 1011.63 1011.97 1012.31 1012.66 1013.01 1013.37 1013.74
1008.54 1008.71 1009.03 1009.45 1009.92 1010.35 1010.70 1010.91 1010.98 1010.92 1010.77 1010.56 1010.34 1010.15 1010.00 1009.88 1009.79 1009.70 1009.58 1009.42 1009.22 1008.99 1008.74 1008.52 1008.34 1008.24 1008.23 1008.30 1008.46 1008.69 1008.98 1009.31 1009.66 1010.02 1010.38 1010.73 1011.07 1011.40 1011.71 1012.02 1012.33 1012.64 1012.97
1008.41 1008.50 1008.77 1009.17 1009.62 1010.05 1010.41 1010.63 1010.71 1010.66 1010.51 1010.32 1010.13 1009.97 1009.86 1009.79 1009.74 1009.69 1009.59 1009.43 1009.21 1008.93 1008.62 1008.30 1008.03 1007.82 1007.71 1007.71 1007.82 1008.03 1008.32 1008.67 1009.06 1009.46 1009.85 1010.23 1010.58 1010.90 1011.19 1011.45 1011.71 1011.98 1012.26
1008.39 1008.39 1008.59 1008.92 1009.32 1009.71 1010.03 1010.24 1010.31 1010.26 1010.13 1009.97 1009.82 1009.72 1009.66 1009.65 1009.66 1009.65 1009.58 1009.44 1009.21 1008.90 1008.53 1008.15 1007.79 1007.51 1007.33 1007.27 1007.33 1007.52 1007.80 1008.17 1008.58 1009.01 1009.43 1009.83 1010.18 1010.49 1010.76 1011.00 1011.21 1011.43 1011.65
1008.49 1008.41 1008.52 1008.76 1009.06 1009.37 1009.62 1009.78 1009.82 1009.77 1009.66 1009.54 1009.44 1009.39 1009.40 1009.45 1009.51 1009.55 1009.52 1009.39 1009.16 1008.84 1008.46 1008.04 1007.65 1007.33 1007.11 1007.01 1007.05 1007.22 1007.49 1007.86 1008.28 1008.72 1009.16 1009.56 1009.92 1010.22 1010.47 1010.68 1010.87 1011.04 1011.22
1008.70 1008.56 1008.57 1008.69 1008.88 1009.07 1009.22 1009.29 1009.29 1009.23 1009.13 1009.04 1008.99 1009.00 1009.06 1009.16 1009.27 1009.34 1009.34 1009.24 1009.04 1008.74 1008.37 1007.97 1007.59 1007.28 1007.06 1006.96 1006.99 1007.16 1007.43 1007.79 1008.20 1008.64 1009.07 1009.47 1009.82 1010.11 1010.36 1010.55 1010.72 1010.86 1011.01
1009.02 1008.81 1008.72 1008.72 1008.77 1008.82 1008.85 1008.83 1008.77 1008.68 1008.59 1008.52 1008.50 1008.55 1008.65 1008.78 1008.92 1009.01 1009.04 1008.97 1008.81 1008.56 1008.25 1007.91 1007.60 1007.34 1007.17 1007.12 1007.18 1007.35 1007.62 1007.97 1008.36 1008.78 1009.19 1009.57 1009.90 1010.19 1010.43 1010.62 1010.78 1010.92 1011.04
1009.37 1009.11 1008.93 1008.81 1008.71 1008.63 1008.53 1008.42 1008.29 1008.16 1008.06 1008.00 1008.00 1008.07 1008.18 1008.32 1008.46 1008.57 1008.61 1008.57 1008.46 1008.28 1008.07 1007.84 1007.64 1007.49 1007.42 1007.45 1007.57 1007.77 1008.06 1008.39 1008.76 1009.14 1009.52 1009.87 1010.19 1010.47 1010.71 1010.90 1011.07 1011.21 1011.32
1009.66 1009.38 1009.13 1008.90 1008.68 1008.47 1008.26 1008.06 1007.86 1007.70 1007.58 1007.52 1007.52 1007.58 1007.68 1007.81 1007.93 1008.02 1008.06 1008.06 1008.00 1007.91 1007.81 1007.72 1007.67 1007.67 1007.74 1007.88 1008.09 1008.36 1008.66 1009.00 1009.35 1009.70 1010.04 1010.36 1010.66 1010.93 1011.16 1011.37 1011.55 1011.69 1011.82
1009.82 1009.53 1009.22 1008.92 1008.61 1008.31 1008.01 1007.74 1007.49 1007.30 1007.16 1007.09 1007.07 1007.11 1007.17 1007.26 1007.34 1007.40 1007.43 1007.44 1007.44 1007.44 1007.46 1007.52 1007.63 1007.81 1008.04 1008.32 1008.64 1008.99 1009.34 1009.70 1010.05 1010.38 1010.70 1011.00 1011.28 1011.53 1011.77 1011.99 1012.18 1012.34 1012.47
1009.75 1009.47 1009.16 1008.81 1008.45 1008.10 1007.75 1007.43 1007.16 1006.95 1006.79 1006.70 1006.66 1006.66 1006.69 1006.71 1006.74 1006.75 1006.76 1006.77 1006.80 1006.88 1007.01 1007.21 1007.49 1007.83 1008.23 1008.66 1009.10 1009.55 1009.97 1010.37 1010.75 1011.09 1011.40 1011.70 1011.97 1012.23 1012.47 1012.69 1012.89 1013.06 1013.20
1009.43 1009.19 1008.89 1008.55 1008.18 1007.80 1007.44 1007.12 1006.84 1006.62 1006.46 1006.35 1006.29 1006.25 1006.22 1006.19 1006.15 1006.11 1006.08 1006.08 1006.13 1006.26 1006.48 1006.79 1007.20 1007.69 1008.23 1008.80 1009.38 1009.93 1010.45 1010.92 1011.35 1011.73 1012.07 1012.39 1012.68 1012.95 1013.20 1013.43 1013.64 1013.81 1013.95
1008.86 1008.67 1008.41 1008.11 1007.77 1007.42 1007.07 1006.76 1006.49 1006.28 1006.13 1006.01 1005.93 1005.85 1005.78 1005.69 1005.60 1005.51 1005.43 1005.41 1005.46 1005.61 1005.88 1006.27 1006.77 1007.36 1008.02 1008.72 1009.41 1010.07 1010.70 1011.26 1011.77 1012.22 1012.63 1012.99 1013.33 1013.63 1013.90 1014.14 1014.35 1014.53 1014.66
1008.09 1007.96 1007.77 1007.52 1007.24 1006.93 1006.63 1006.35 1006.11 1005.92 1005.77 1005.65 1005.56 1005.46 1005.36 1005.24 1005.10 1004.96 1004.85 1004.80 1004.83 1004.98 1005.27 1005.69 1006.24 1006.90 1007.63 1008.41 1009.20 1009.96 1010.69 1011.36 1011.97 1012.52 1013.02 1013.46 1013.86 1014.21 1014.52 1014.78 1014.99 1015.16 1015.30
1007.20 1007.14 1007.02 1006.84 1006.61 1006.37 1006.11 1005.87 1005.66 1005.49 1005.36 1005.25 1005.16 1005.06 1004.95 1004.81 1004.65 1004.50 1004.36 1004.29 1004.31 1004.44 1004.71 1005.13 1005.68 1006.36 1007.13 1007.95 1008.80 1009.65 1010.47 1011.25 1011.97 1012.63 1013.23 1013.77 1014.24 1014.66 1015.01 1015.30 1015.52 1015.69 1015.82
1006.26 1006.26 1006.21 1006.10 1005.94 1005.74 1005.53 1005.33 1005.15 1005.00 1004.89 1004.80 1004.72 1004.64 1004.54 1004.41 1004.27 1004.12 1003.99 1003.91 1003.92 1004.03 1004.28 1004.67 1005.20 1005.86 1006.62 1007.45 1008.33 1009.23 1010.12 1010.98 1011.79 1012.56 1013.26 1013.90 1014.46 1014.94 1015.35 1015.67 1015.92 1016.10 1016.23
1005.35 1005.40 1005.40 1005.34 1005.23 1005.08 1004.91 1004.74 1004.59 1004.46 1004.37 1004.30 1004.25 1004.19 1004.13 1004.05 1003.94 1003.83 1003.74 1003.68 1003.69 1003.80 1004.03 1004.39 1004.88 1005.50 1006.23 1007.04 1007.91 1008.82 1009.73 1010.64 1011.53 1012.37 1013.15 1013.87 1014.50 1015.06 1015.52 1015.88 1016.16 1016.36 1016.51
1004.50 1004.58 1004.61 1004.59 1004.52 1004.41 1004.27 1004.12 1003.99 1003.88 1003.81 1003.77 1003.75 1003.74 1003.73 1003.71 1003.67 1003.63 1003.60 1003.59 1003.64 1003.77 1004.00 1004.34 1004.80 1005.37 1006.05 1006.81 1007.65 1008.53 1009.43 1010.34 1011.25 1012.12 1012.94 1013.71 1014.40 1015.00 1015.51 1015.92 1016.23 1016.47 1016.64
1003.69 1003.78 1003.84 1003.85 1003.80 1003.72 1003.61 1003.49 1003.38 1003.29 1003.24 1003.23 1003.25 1003.29 1003.35 1003.40 1003.44 1003.49 1003.54 1003.62 1003.73 1003.91 1004.16 1004.51 1004.95 1005.49 1006.12 1006.83 1007.60 1008.42 1009.27 1010.14 1011.01 1011.87 1012.69 1013.46 1014.16 1014.79 1015.33 1015.78 1016.14 1016.42 1016.64
Thickness
5760 5759 5757 5757 5757 5756 5755 5752 5750 5749 5747 5746 5744 5742 5742 5740 5737 5736 5737 5739 5739 5739 5740 5739 5739 5739 5739 5739 5739 5739 5740 5739 5739 5738 5738 5737 5736 5734 5733 5731 5729 5728 5726
5757 5754 5753 5753 5753 5752 5750 5748 5747 5746 5744 5743 5742 5741 5739 5737 5735 5735 5735 5736 5737 5737 5736 5736 5737 5737 5736 5737 5737 5738 5738 5738 5737 5737 5737 5736 5736 5735 5733 5732 5730 5728 5727
5755 5752 5749 5748 5748 5748 5746 5745 5744 5743 5741 5740 5739 5739 5738 5737 5735 5734 5734 5735 5735 5735 5735 5735 5735 5734 5735 5735 5735 5736 5736 5736 5736 5736 5736 5736 5735 5734 5733 5732 5730 5729 5727
5751 5748 5745 5743 5743 5742 5740 5739 5738 5737 5737 5737 5736 5737 5737 5736 5736 5735 5735 5734 5734 5734 5734 5734 5734 5734 5734 5734 5734 5734 5734 5734 5734 5734 5735 5735 5734 5734 5733 5732 5731 5729 5728
5746 5744 5740 5738 5737 5736 5734 5734 5732 5732 5731 5732 5733 5735 5736 5735 5735 5735 5734 5734 5733 5733 5733 5733 5733 5733 5733 5733 5732 5732 5732 5732 5732 5732 5732 5733 5733 5733 5733 5732 5731 5729 5728
5741 5739 5735 5732 5731 5730 5729 5728 5727 5728 5728 5729 5731 5733 5734 5735 5736 5735 5734 5733 5733 5732 5732 5731 5731 5731 5731 5730 5730 5731 5731 5731 5730 5730 5730 5730 5731 5731 5731 5731 5730 5729 5728
5736 5733 5730 5728 5726 5724 5723 5724 5724 5724 5724 5727 5726 5726 5730 5734 5735 5734 5733 5732 5731 5731 5730 5730 5729 5729 5729 5729 5729 5729 5729 5729 5728 5727 5728 5728 5729 5729 5730 5730 5730 5729 5728
5731 5729 5726 5723 5722 5721 5719 5719 5719 5718 5720 5723 5721 5718 5717 5721 5727 5732 5730 5728 5728 5728 5727 5727 5727 5728 5728 5728 5728 5728 5727 5726 5725 5725 5725 5725 5725 5726 5727 5728 5728 5728 5727
5727 5726 5723 5721 5719 5718 5715 5715 5715 5714 5713 5717 5719 5716 5711 5709 5714 5722 5725 5724 5723 5721 5722 5723 5725 5725 5726 5726 5726 5726 5726 5725 5724 5722 5721 5722 5722 5723 5725 5726 5727 5726 5726
5722 5721 5720 5718 5716 5714 5712 5711 5712 5711 5710 5709 5713 5716 5715 5714 5709 5708 5715 5719 5719 5717 5716 5718 5720 5722 5723 5724 5724 5724 5724 5724 5722 5720 5719 5719 5719 5720 5722 5723 5724 5725 5724
5715 5715 5715 5713 5712 5709 5708 5707 5706 5706 5706 5706 5707 5708 5710 5710 5710 5705 5705 5709 5712 5713 5713 5714 5716 5717 5719 5720 5720 5720 5720 5720 5718 5718 5716 5715 5714 5716 5718 5720 5721 5722 5722
5704 5707 5708 5708 5707 5705 5703 5702 5701 5701 5702 5703 5704 5704 5704 5704 5704 5703 5702 5703 5704 5707 5710 5711 5712 5712 5714 5715 5715 5716 5716 5715 5714 5713 5712 5711 5710 5712 5713 5715 5717 5718 5719
5690 5695 5699 5700 5700 5700 5699 5697 5696 5696 5697 5698 5699 5701 5702 5703 5704 5703 5701 5700 5699 5701 5704 5706 5707 5707 5708 5709 5709 5709 5709 5709 5709 5708 5707 5706 5705 5707 5708 5709 5711 5713 5714
5674 5680 5686 5690 5692 5693 5693 5692 5691 5691 5692 5693 5695 5697 5698 5699 5701 5701 5699 5697 5694 5693 5694 5697 5700 5700 5700 5701 5701 5701 5701 5702 5701 5701 5700 5699 5699 5700 5701 5702 5703 5704 5706
5659 5663 5669 5674 5678 5681 5683 5684 5684 5685 5686 5687 5689 5692 5693 5695 5697 5698 5698 5696 5691 5688 5686 5689 5691 5692 5691 5690 5690 5691 5691 5692 5693 5693 5692 5691 5691 5691 5692 5693 5693 5695 5696
5642 5646 5650 5655 5661 5666 5670 5673 5675 5677 5679 5681 5683 5685 5687 5689 5691 5693 5694 5693 5692 5688 5684 5684 5685 5684 5683 5682 5681 5681 5681 5682 5683 5683 5683 5682 5682 5682 5682 5682 5683 5684 5685
5624 5628 5632 5637 5642 5648 5655 5659 5664 5668 5671 5674 5676 5679 5682 5684 5686 5687 5689 5689 5688 5687 5684 5682 5681 5679 5676 5674 5671 5671 5671 5671 5671 5672 5672 5672 5672 5672 5672 5672 5672 5673 5674
5604 5608 5613 5618 5624 5630 5636 5643 5650 5656 5660 5664 5668 5671 5675 5678 5680 5682 5683 5684 5684 5685 5683 5680 5677 5674 5670 5667 5664 5662 5661 5660 5660 5660 5661 5662 5662 5662 5662 5662 5662 5662 5664
5582 5587 5592 5598 5604 5611 5617 5625 5633 5641 5648 5655 5659 5663 5668 5671 5673 5676 5678 5679 5681 5682 5682 5679 5675 5670 5666 5661 5657 5653 5652 5651 5650 5649 5650 5650 5651 5651 5651 5651 5651 5652 5653
5560 5565 5571 5578 5585 5592 5599 5607 5615 5624 5633 5642 5649 5655 5660 5664 5667 5670 5672 5675 5677 5679 5679 5677 5673 5667 5661 5656 5652 5647 5643 5642 5642 5641 5640 5640 5640 5640 5640 5640 5640 5641 5642
5547 5550 5553 5559 5565 5572 5581 5589 5597 5607 5617 5627 5636 5645 5652 5658 5662 5665 5668 5670 5673 5675 5676 5674 5670 5665 5658 5652 5647 5643 5639 5635 5632 5631 5631 5629 5629 5629 5628 5629 5629 5629 5630
5540 5541 5542 5545 5549 5556 5564 5572 5580 5589 5600 5611 5622 5632 5641 5649 5654 5658 5663 5667 5670 5672 5673 5672 5669 5664 5657 5651 5645 5641 5636 5632 5625 5621 5623 5618 5618 5617 5617 5618 5619 5620 5620
5534 5535 5537 5538 5541 5544 5549 5555 5562 5572 5583 5595 5608 5619 5630 5639 5645 5649 5654 5660 5666 5669 5672 5672 5668 5662 5656 5651 5645 5637 5632 5630 5625 5619 5616 5610 5608 5607 5607 5608 5609 5610 5611
5525 5527 5530 5533 5535 5539 5541 5543 5548 5556 5566 5580 5594 5607 5618 5628 5635 5640 5645 5651 5657 5662 5665 5666 5665 5660 5654 5647 5642 5636 5629 5623 5617 5612 5611 5604 5599 5597 5598 5599 5600 5602 5603
5516 5519 5523 5527 5530 5534 5537 5538 5540 5543 5552 5565 5580 5594 5606 5616 5625 5631 5636 5641 5646 5650 5655 5657 5656 5652 5647 5641 5636 5629 5623 5617 5609 5604 5603 5599 5593 5590 5590 5591 5593 5595 5596
5507 5511 5516 5521 5526 5529 5533 5535 5536 5536 5542 5552 5566 5581 5594 5605 5613 5621 5627 5632 5636 5640 5644 5644 5643 5640 5637 5633 5629 5626 5622 5615 5608 5601 5599 5596 5590 5588 5584 5585 5587 5589 5590